contact:dominique.lefevre@mio.osupytheas.fr, maurice.libes@osupytheas.fr, didier.mallarino@osupytheas.fr
Project:EMSO http://www.emso-fr.org/EMSO-France
Depth: 2436.0 m
Title:EMSO Ligure Ouest : Data MII capteur MICROCAT
DateTime_Computer,Latitude,Longitude,Temperature,Conductivity,Pressure,DateTime_Instrument
DateTime_Computer,Latitude,Longitude,degC,S m-1,dbar,DateTime_Instrument
2021-01-30T00:01:39Z,42.805,6.029,13.2991,4.60009,2470.087,2021-1-30T02:02:41Z
2021-01-30T00:04:42Z,42.805,6.029,13.2996,4.60002,2470.049,2021-1-30T02:05:45Z
2021-01-30T00:07:45Z,42.805,6.029,13.2990,4.60027,2470.04,2021-1-30T02:08:48Z
2021-01-30T00:10:48Z,42.805,6.029,13.2999,4.60032,2470.063,2021-1-30T02:11:51Z
2021-01-30T00:13:51Z,42.805,6.029,13.2991,4.60003,2470.053,2021-1-30T02:14:54Z
2021-01-30T00:16:54Z,42.805,6.029,13.2990,4.60009,2470.04,2021-1-30T02:17:57Z
2021-01-30T00:19:58Z,42.805,6.029,13.2988,4.60008,2470.04,2021-1-30T02:21:00Z
2021-01-30T00:23:01Z,42.805,6.029,13.2991,4.60010,2470.1,2021-1-30T02:24:03Z
2021-01-30T00:26:04Z,42.805,6.029,13.2993,4.60010,2470.03,2021-1-30T02:27:06Z
2021-01-30T00:29:07Z,42.805,6.029,13.2993,4.60023,2470.077,2021-1-30T02:30:10Z
2021-01-30T00:32:10Z,42.805,6.029,13.2990,4.60020,2470.04,2021-1-30T02:33:13Z
2021-01-30T00:35:13Z,42.805,6.029,13.3000,4.60034,2470.04,2021-1-30T02:36:16Z
2021-01-30T00:38:16Z,42.805,6.029,13.2996,4.60029,2470.077,2021-1-30T02:39:19Z
2021-01-30T00:41:19Z,42.805,6.029,13.2996,4.60021,2470.026,2021-1-30T02:42:22Z
2021-01-30T00:44:23Z,42.805,6.029,13.2992,4.60026,2470.053,2021-1-30T02:45:25Z
2021-01-30T00:47:26Z,42.805,6.029,13.2986,4.60019,2470.04,2021-1-30T02:48:28Z
2021-01-30T00:50:29Z,42.805,6.029,13.2989,4.60011,2470.03,2021-1-30T02:51:31Z
2021-01-30T00:53:32Z,42.805,6.029,13.2991,4.60023,2470.03,2021-1-30T02:54:35Z
2021-01-30T00:56:35Z,42.805,6.029,13.3001,4.60044,2470.04,2021-1-30T02:57:38Z
2021-01-30T00:59:38Z,42.805,6.029,13.2997,4.60034,2470.1,2021-1-30T03:00:41Z
2021-01-30T01:02:41Z,42.805,6.029,13.2999,4.60024,2470.017,2021-1-30T03:03:44Z
2021-01-30T01:05:44Z,42.805,6.029,13.2999,4.60041,2470.077,2021-1-30T03:06:47Z
2021-01-30T01:08:48Z,42.805,6.029,13.3001,4.60039,2470.053,2021-1-30T03:09:50Z
2021-01-30T01:11:51Z,42.805,6.029,13.2990,4.60021,2470.03,2021-1-30T03:12:53Z
2021-01-30T01:14:54Z,42.805,6.029,13.2997,4.60021,2470.04,2021-1-30T03:15:56Z
2021-01-30T01:17:57Z,42.805,6.029,13.2993,4.60009,2470.03,2021-1-30T03:19:00Z
2021-01-30T01:21:00Z,42.805,6.029,13.2991,4.60023,2470.03,2021-1-30T03:22:03Z
2021-01-30T01:24:03Z,42.805,6.029,13.2990,4.60039,2470.017,2021-1-30T03:25:06Z
2021-01-30T01:27:06Z,42.805,6.029,13.2991,4.60008,2470.03,2021-1-30T03:28:09Z
2021-01-30T01:30:09Z,42.805,6.029,13.2998,4.60046,2470.04,2021-1-30T03:31:12Z
2021-01-30T01:33:13Z,42.805,6.029,13.3008,4.60055,2470.017,2021-1-30T03:34:15Z
2021-01-30T01:36:16Z,42.805,6.029,13.3004,4.60017,2470.007,2021-1-30T03:37:18Z
2021-01-30T01:39:19Z,42.805,6.029,13.3003,4.60033,2469.993,2021-1-30T03:40:21Z
2021-01-30T01:42:22Z,42.805,6.029,13.2995,4.60026,2470.03,2021-1-30T03:43:24Z
2021-01-30T01:45:25Z,42.805,6.029,13.3006,4.60036,2470.03,2021-1-30T03:46:28Z
2021-01-30T01:48:28Z,42.805,6.029,13.3007,4.60034,2470.03,2021-1-30T03:49:31Z
2021-01-30T01:51:31Z,42.805,6.029,13.3017,4.60079,2470.03,2021-1-30T03:52:34Z
2021-01-30T01:54:34Z,42.805,6.029,13.3006,4.60054,2470.007,2021-1-30T03:55:37Z
2021-01-30T01:57:38Z,42.805,6.029,13.3004,4.60062,2470.017,2021-1-30T03:58:40Z
2021-01-30T02:00:41Z,42.805,6.029,13.3011,4.60056,2470.017,2021-1-30T04:01:43Z
2021-01-30T02:03:44Z,42.805,6.029,13.2995,4.60036,2470.017,2021-1-30T04:04:46Z
2021-01-30T02:06:47Z,42.805,6.029,13.3002,4.60038,2469.993,2021-1-30T04:07:49Z
2021-01-30T02:09:50Z,42.805,6.029,13.2995,4.60064,2470.007,2021-1-30T04:10:53Z
2021-01-30T02:12:53Z,42.805,6.029,13.2997,4.60033,2469.97,2021-1-30T04:13:56Z
2021-01-30T02:15:56Z,42.805,6.029,13.2997,4.60064,2470.017,2021-1-30T04:16:59Z
2021-01-30T02:18:59Z,42.805,6.029,13.3000,4.60064,2470.03,2021-1-30T04:20:02Z
2021-01-30T02:22:02Z,42.805,6.029,13.3002,4.60088,2469.993,2021-1-30T04:23:05Z
2021-01-30T02:25:06Z,42.805,6.029,13.3015,4.60048,2470.03,2021-1-30T04:26:08Z
2021-01-30T02:28:09Z,42.805,6.029,13.3003,4.60039,2470.017,2021-1-30T04:29:11Z
2021-01-30T02:31:12Z,42.805,6.029,13.3005,4.60054,2469.993,2021-1-30T04:32:14Z
2021-01-30T02:34:15Z,42.805,6.029,13.3014,4.60074,2469.97,2021-1-30T04:35:18Z
2021-01-30T02:37:18Z,42.805,6.029,13.3011,4.60102,2470.007,2021-1-30T04:38:21Z
2021-01-30T02:40:21Z,42.805,6.029,13.3031,4.60026,2469.993,2021-1-30T04:41:24Z
2021-01-30T02:43:24Z,42.805,6.029,13.3002,4.60049,2470.017,2021-1-30T04:44:27Z
2021-01-30T02:46:27Z,42.805,6.029,13.3019,4.60044,2470.017,2021-1-30T04:47:30Z
2021-01-30T02:49:31Z,42.805,6.029,13.3000,4.60062,2470.017,2021-1-30T04:50:33Z
2021-01-30T02:52:34Z,42.805,6.029,13.2999,4.60056,2469.993,2021-1-30T04:53:36Z
2021-01-30T02:55:37Z,42.805,6.029,13.3011,4.60062,2469.984,2021-1-30T04:56:39Z
2021-01-30T02:58:40Z,42.805,6.029,13.3014,4.60044,2470.017,2021-1-30T04:59:43Z
2021-01-30T03:01:43Z,42.805,6.029,13.3009,4.60062,2470.017,2021-1-30T05:02:46Z
2021-01-30T03:04:46Z,42.805,6.029,13.3020,4.60054,2470.017,2021-1-30T05:05:49Z
2021-01-30T03:07:49Z,42.805,6.029,13.3023,4.60087,2469.993,2021-1-30T05:08:52Z
2021-01-30T03:10:52Z,42.805,6.029,13.3017,4.60057,2470.017,2021-1-30T05:11:55Z
2021-01-30T03:13:56Z,42.805,6.029,13.3011,4.60068,2469.984,2021-1-30T05:14:58Z
2021-01-30T03:16:59Z,42.805,6.029,13.3015,4.60104,2469.984,2021-1-30T05:18:01Z
2021-01-30T03:20:02Z,42.805,6.029,13.3024,4.60031,2469.993,2021-1-30T05:21:04Z
2021-01-30T03:23:05Z,42.805,6.029,13.3013,4.60055,2470.04,2021-1-30T05:24:07Z
2021-01-30T03:26:08Z,42.805,6.029,13.3000,4.60057,2470.017,2021-1-30T05:27:11Z
2021-01-30T03:29:11Z,42.805,6.029,13.3009,4.60052,2470.007,2021-1-30T05:30:14Z
2021-01-30T03:32:14Z,42.805,6.029,13.3011,4.60061,2470.007,2021-1-30T05:33:17Z
2021-01-30T03:35:17Z,42.805,6.029,13.3046,4.60083,2470.017,2021-1-30T05:36:20Z
2021-01-30T03:38:21Z,42.805,6.029,13.3019,4.60028,2470.007,2021-1-30T05:39:23Z
2021-01-30T03:41:24Z,42.805,6.029,13.3009,4.60038,2470.007,2021-1-30T05:42:26Z
2021-01-30T03:44:27Z,42.805,6.029,13.3001,4.60015,2470.03,2021-1-30T05:45:29Z
2021-01-30T03:47:30Z,42.805,6.029,13.3018,4.60044,2470.03,2021-1-30T05:48:32Z
2021-01-30T03:50:33Z,42.805,6.029,13.3003,4.60039,2470.017,2021-1-30T05:51:36Z
2021-01-30T03:53:36Z,42.805,6.029,13.3023,4.60061,2470.017,2021-1-30T05:54:39Z
2021-01-30T03:56:39Z,42.805,6.029,13.3016,4.60051,2470.017,2021-1-30T05:57:42Z
2021-01-30T03:59:42Z,42.805,6.029,13.3026,4.60033,2470.03,2021-1-30T06:00:45Z
2021-01-30T04:02:46Z,42.805,6.029,13.3057,4.60069,2470.053,2021-1-30T06:03:48Z
2021-01-30T04:05:49Z,42.805,6.029,13.3022,4.60054,2470.053,2021-1-30T06:06:51Z
2021-01-30T04:08:52Z,42.805,6.029,13.3014,4.60040,2470.04,2021-1-30T06:09:54Z
2021-01-30T04:11:55Z,42.805,6.029,13.3018,4.60040,2470.063,2021-1-30T06:12:57Z
2021-01-30T04:14:58Z,42.805,6.029,13.3028,4.60049,2470.017,2021-1-30T06:16:01Z
2021-01-30T04:18:01Z,42.805,6.029,13.3031,4.60051,2470.04,2021-1-30T06:19:04Z
2021-01-30T04:21:04Z,42.805,6.029,13.3004,4.60016,2470.053,2021-1-30T06:22:07Z
2021-01-30T04:24:07Z,42.805,6.029,13.3018,4.60069,2470.063,2021-1-30T06:25:10Z
2021-01-30T04:27:11Z,42.805,6.029,13.3028,4.60072,2470.063,2021-1-30T06:28:13Z
2021-01-30T04:30:14Z,42.805,6.029,13.3058,4.60056,2470.063,2021-1-30T06:31:16Z
2021-01-30T04:33:17Z,42.805,6.029,13.3034,4.60075,2470.063,2021-1-30T06:34:19Z
2021-01-30T04:36:20Z,42.805,6.029,13.3045,4.60054,2470.077,2021-1-30T06:37:22Z
2021-01-30T04:39:23Z,42.805,6.029,13.3021,4.60079,2470.1,2021-1-30T06:40:26Z
2021-01-30T04:42:26Z,42.805,6.029,13.3029,4.60078,2470.077,2021-1-30T06:43:29Z
2021-01-30T04:45:29Z,42.805,6.029,13.3021,4.60063,2470.063,2021-1-30T06:46:32Z
2021-01-30T04:48:32Z,42.805,6.029,13.3018,4.60026,2470.063,2021-1-30T06:49:35Z
2021-01-30T04:51:36Z,42.805,6.029,13.3043,4.60016,2470.077,2021-1-30T06:52:38Z
2021-01-30T04:54:39Z,42.805,6.029,13.3043,4.60043,2470.053,2021-1-30T06:55:41Z
2021-01-30T04:57:42Z,42.805,6.029,13.3029,4.60022,2470.063,2021-1-30T06:58:44Z
2021-01-30T05:00:45Z,42.805,6.029,13.3014,4.60041,2470.087,2021-1-30T07:01:47Z
2021-01-30T05:03:48Z,42.805,6.029,13.3031,4.60041,2470.11,2021-1-30T07:04:51Z
2021-01-30T05:06:51Z,42.805,6.029,13.3045,4.60096,2470.1,2021-1-30T07:07:54Z
2021-01-30T05:09:54Z,42.805,6.029,13.3039,4.60073,2470.1,2021-1-30T07:10:57Z
2021-01-30T05:12:57Z,42.805,6.029,13.3032,4.60033,2470.124,2021-1-30T07:14:00Z
2021-01-30T05:16:01Z,42.805,6.029,13.3019,4.60039,2470.1,2021-1-30T07:17:03Z
2021-01-30T05:19:04Z,42.805,6.029,13.3014,4.60017,2470.087,2021-1-30T07:20:06Z
2021-01-30T05:22:07Z,42.805,6.029,13.2988,4.60000,2470.124,2021-1-30T07:23:09Z
2021-01-30T05:25:10Z,42.805,6.029,13.2981,4.59999,2470.133,2021-1-30T07:26:12Z
2021-01-30T05:28:13Z,42.805,6.029,13.2982,4.59992,2470.133,2021-1-30T07:29:16Z
2021-01-30T05:31:16Z,42.805,6.029,13.2997,4.59999,2470.156,2021-1-30T07:32:19Z
2021-01-30T05:34:19Z,42.805,6.029,13.3021,4.60010,2470.147,2021-1-30T07:35:22Z
2021-01-30T05:37:22Z,42.805,6.029,13.2983,4.60001,2470.124,2021-1-30T07:38:25Z
2021-01-30T05:40:26Z,42.805,6.029,13.2983,4.60004,2470.133,2021-1-30T07:41:28Z
2021-01-30T05:43:29Z,42.805,6.029,13.2978,4.60000,2470.156,2021-1-30T07:44:31Z
2021-01-30T05:46:32Z,42.805,6.029,13.2985,4.60005,2470.18,2021-1-30T07:47:34Z
2021-01-30T05:49:35Z,42.805,6.029,13.2985,4.59999,2470.18,2021-1-30T07:50:37Z
2021-01-30T05:52:38Z,42.805,6.029,13.2983,4.59999,2470.171,2021-1-30T07:53:41Z
2021-01-30T05:55:41Z,42.805,6.029,13.2979,4.59998,2470.156,2021-1-30T07:56:44Z
2021-01-30T05:58:44Z,42.805,6.029,13.2982,4.60000,2470.171,2021-1-30T07:59:47Z
2021-01-30T06:01:47Z,42.805,6.029,13.2985,4.59997,2470.18,2021-1-30T08:02:50Z
2021-01-30T06:04:51Z,42.805,6.029,13.2978,4.59995,2470.18,2021-1-30T08:05:53Z
2021-01-30T06:07:54Z,42.805,6.029,13.2981,4.59991,2470.171,2021-1-30T08:08:56Z
2021-01-30T06:10:57Z,42.805,6.029,13.2985,4.59991,2470.217,2021-1-30T08:11:59Z
2021-01-30T06:14:00Z,42.805,6.029,13.2983,4.59996,2470.18,2021-1-30T08:15:02Z
2021-01-30T06:17:03Z,42.805,6.029,13.2982,4.59994,2470.217,2021-1-30T08:18:06Z
2021-01-30T06:20:06Z,42.805,6.029,13.2982,4.59991,2470.18,2021-1-30T08:21:09Z
2021-01-30T06:23:09Z,42.805,6.029,13.2983,4.59989,2470.217,2021-1-30T08:24:12Z
2021-01-30T06:26:12Z,42.805,6.029,13.2979,4.59988,2470.203,2021-1-30T08:27:15Z
2021-01-30T06:29:16Z,42.805,6.029,13.2983,4.59988,2470.217,2021-1-30T08:30:18Z
2021-01-30T06:32:19Z,42.805,6.029,13.2983,4.59990,2470.227,2021-1-30T08:33:21Z
2021-01-30T06:35:22Z,42.805,6.029,13.2983,4.59988,2470.194,2021-1-30T08:36:24Z
2021-01-30T06:38:25Z,42.805,6.029,13.2981,4.59993,2470.227,2021-1-30T08:39:27Z
2021-01-30T06:41:28Z,42.805,6.029,13.2983,4.59994,2470.217,2021-1-30T08:42:31Z
2021-01-30T06:44:31Z,42.805,6.029,13.2984,4.59990,2470.227,2021-1-30T08:45:34Z
2021-01-30T06:47:34Z,42.805,6.029,13.2984,4.59989,2470.227,2021-1-30T08:48:37Z
2021-01-30T06:50:37Z,42.805,6.029,13.2982,4.59987,2470.217,2021-1-30T08:51:40Z
2021-01-30T06:53:41Z,42.805,6.029,13.2982,4.59993,2470.24,2021-1-30T08:54:43Z
2021-01-30T06:56:44Z,42.805,6.029,13.2985,4.59995,2470.25,2021-1-30T08:57:46Z
2021-01-30T06:59:47Z,42.805,6.029,13.2983,4.59989,2470.25,2021-1-30T09:00:49Z
2021-01-30T07:02:50Z,42.805,6.029,13.2988,4.59992,2470.217,2021-1-30T09:03:52Z
2021-01-30T07:05:53Z,42.805,6.029,13.3021,4.60034,2470.217,2021-1-30T09:06:56Z
2021-01-30T07:08:56Z,42.805,6.029,13.3004,4.60026,2470.227,2021-1-30T09:09:59Z
2021-01-30T07:11:59Z,42.805,6.029,13.2985,4.59991,2470.264,2021-1-30T09:13:02Z
2021-01-30T07:15:02Z,42.805,6.029,13.2995,4.60007,2470.24,2021-1-30T09:16:05Z
2021-01-30T07:18:05Z,42.805,6.029,13.2989,4.59996,2470.264,2021-1-30T09:19:08Z
2021-01-30T07:21:09Z,42.805,6.029,13.2986,4.59992,2470.227,2021-1-30T09:22:11Z
2021-01-30T07:24:12Z,42.805,6.029,13.2988,4.59995,2470.287,2021-1-30T09:25:14Z
2021-01-30T07:27:15Z,42.805,6.029,13.2984,4.59991,2470.25,2021-1-30T09:28:17Z
2021-01-30T07:30:18Z,42.805,6.029,13.2981,4.59988,2470.264,2021-1-30T09:31:21Z
2021-01-30T07:33:21Z,42.805,6.029,13.2982,4.59992,2470.217,2021-1-30T09:34:24Z
2021-01-30T07:36:24Z,42.805,6.029,13.2988,4.59994,2470.25,2021-1-30T09:37:27Z
2021-01-30T07:39:27Z,42.805,6.029,13.2986,4.59997,2470.227,2021-1-30T09:40:30Z
2021-01-30T07:42:30Z,42.805,6.029,13.3011,4.60029,2470.297,2021-1-30T09:43:33Z
2021-01-30T07:45:34Z,42.805,6.029,13.3000,4.60039,2470.287,2021-1-30T09:46:36Z
2021-01-30T07:48:37Z,42.805,6.029,13.2999,4.60001,2470.273,2021-1-30T09:49:39Z
2021-01-30T07:51:40Z,42.805,6.029,13.3009,4.60019,2470.297,2021-1-30T09:52:42Z
2021-01-30T07:54:43Z,42.805,6.029,13.2998,4.59994,2470.264,2021-1-30T09:55:46Z
2021-01-30T07:57:46Z,42.805,6.029,13.3000,4.60025,2470.25,2021-1-30T09:58:49Z
2021-01-30T08:00:49Z,42.805,6.029,13.2987,4.60001,2470.25,2021-1-30T10:01:52Z
2021-01-30T08:03:52Z,42.805,6.029,13.2986,4.59999,2470.287,2021-1-30T10:04:55Z
2021-01-30T08:06:55Z,42.805,6.029,13.2986,4.59996,2470.287,2021-1-30T10:07:58Z
2021-01-30T08:09:59Z,42.805,6.029,13.2993,4.59996,2470.273,2021-1-30T10:11:01Z
2021-01-30T08:13:02Z,42.805,6.029,13.2987,4.59993,2470.31,2021-1-30T10:14:04Z
2021-01-30T08:16:05Z,42.805,6.029,13.2991,4.60020,2470.264,2021-1-30T10:17:07Z
2021-01-30T08:19:08Z,42.805,6.029,13.3002,4.60026,2470.24,2021-1-30T10:20:11Z
2021-01-30T08:22:11Z,42.805,6.029,13.3005,4.60031,2470.273,2021-1-30T10:23:14Z
2021-01-30T08:25:14Z,42.805,6.029,13.3020,4.60028,2470.25,2021-1-30T10:26:17Z
2021-01-30T08:28:17Z,42.805,6.029,13.3019,4.60022,2470.264,2021-1-30T10:29:20Z
2021-01-30T08:31:20Z,42.805,6.029,13.3014,4.60039,2470.273,2021-1-30T10:32:23Z
2021-01-30T08:34:24Z,42.805,6.029,13.3010,4.60050,2470.264,2021-1-30T10:35:26Z
2021-01-30T08:37:27Z,42.805,6.029,13.3027,4.60049,2470.287,2021-1-30T10:38:29Z
2021-01-30T08:40:30Z,42.805,6.029,13.3015,4.60044,2470.25,2021-1-30T10:41:32Z
2021-01-30T08:43:33Z,42.805,6.029,13.3024,4.60074,2470.273,2021-1-30T10:44:36Z
2021-01-30T08:46:36Z,42.805,6.029,13.3025,4.60055,2470.273,2021-1-30T10:47:39Z
2021-01-30T08:49:39Z,42.805,6.029,13.3023,4.60031,2470.297,2021-1-30T10:50:42Z
2021-01-30T08:52:42Z,42.805,6.029,13.3023,4.60019,2470.31,2021-1-30T10:53:45Z
2021-01-30T08:55:46Z,42.805,6.029,13.3015,4.60021,2470.297,2021-1-30T10:56:48Z
2021-01-30T08:58:49Z,42.805,6.029,13.3024,4.60014,2470.25,2021-1-30T10:59:51Z
2021-01-30T09:01:52Z,42.805,6.029,13.3009,4.60022,2470.297,2021-1-30T11:02:54Z
2021-01-30T09:04:55Z,42.805,6.029,13.3009,4.60023,2470.31,2021-1-30T11:05:57Z
2021-01-30T09:07:58Z,42.805,6.029,13.3022,4.60061,2470.287,2021-1-30T11:09:01Z
2021-01-30T09:11:01Z,42.805,6.029,13.3023,4.60031,2470.273,2021-1-30T11:12:04Z
2021-01-30T09:14:04Z,42.805,6.029,13.3011,4.60024,2470.273,2021-1-30T11:15:07Z
2021-01-30T09:17:07Z,42.805,6.029,13.3014,4.60031,2470.297,2021-1-30T11:18:10Z
2021-01-30T09:20:11Z,42.805,6.029,13.3029,4.60061,2470.273,2021-1-30T11:21:13Z
2021-01-30T09:23:14Z,42.805,6.029,13.3015,4.60026,2470.297,2021-1-30T11:24:16Z
2021-01-30T09:26:17Z,42.805,6.029,13.3010,4.60054,2470.24,2021-1-30T11:27:19Z
2021-01-30T09:29:20Z,42.805,6.029,13.3012,4.60061,2470.273,2021-1-30T11:30:22Z
2021-01-30T09:32:23Z,42.805,6.029,13.3017,4.60060,2470.264,2021-1-30T11:33:26Z
2021-01-30T09:35:26Z,42.805,6.029,13.3024,4.60069,2470.273,2021-1-30T11:36:29Z
2021-01-30T09:38:29Z,42.805,6.029,13.3009,4.60050,2470.287,2021-1-30T11:39:32Z
2021-01-30T09:41:32Z,42.805,6.029,13.3004,4.60049,2470.31,2021-1-30T11:42:35Z
2021-01-30T09:44:36Z,42.805,6.029,13.3010,4.60056,2470.227,2021-1-30T11:45:38Z
2021-01-30T09:47:39Z,42.805,6.029,13.2998,4.60049,2470.227,2021-1-30T11:48:41Z
2021-01-30T09:50:42Z,42.805,6.029,13.3014,4.60039,2470.273,2021-1-30T11:51:44Z
2021-01-30T09:53:45Z,42.805,6.029,13.3002,4.60051,2470.24,2021-1-30T11:54:48Z
2021-01-30T09:56:48Z,42.805,6.029,13.2998,4.60031,2470.264,2021-1-30T11:57:51Z
2021-01-30T09:59:51Z,42.805,6.029,13.2998,4.60049,2470.25,2021-1-30T12:00:54Z
2021-01-30T10:02:54Z,42.805,6.029,13.2992,4.60021,2470.297,2021-1-30T12:03:57Z
2021-01-30T10:05:57Z,42.805,6.029,13.3006,4.60039,2470.24,2021-1-30T12:07:00Z
2021-01-30T10:09:01Z,42.805,6.029,13.3000,4.60050,2470.25,2021-1-30T12:10:03Z
2021-01-30T10:12:04Z,42.805,6.029,13.2998,4.60024,2470.25,2021-1-30T12:13:06Z
2021-01-30T10:15:07Z,42.805,6.029,13.2995,4.60047,2470.25,2021-1-30T12:16:09Z
2021-01-30T10:18:10Z,42.805,6.029,13.3001,4.60058,2470.287,2021-1-30T12:19:13Z
2021-01-30T10:21:13Z,42.805,6.029,13.2996,4.60053,2470.25,2021-1-30T12:22:16Z
2021-01-30T10:24:16Z,42.805,6.029,13.3001,4.60013,2470.203,2021-1-30T12:25:19Z
2021-01-30T10:27:19Z,42.805,6.029,13.2996,4.60033,2470.25,2021-1-30T12:28:22Z
2021-01-30T10:30:22Z,42.805,6.029,13.3000,4.60026,2470.25,2021-1-30T12:31:25Z
2021-01-30T10:33:26Z,42.805,6.029,13.2992,4.60041,2470.24,2021-1-30T12:34:28Z
2021-01-30T10:36:29Z,42.805,6.029,13.3003,4.60049,2470.264,2021-1-30T12:37:31Z
2021-01-30T10:39:32Z,42.805,6.029,13.2991,4.60020,2470.227,2021-1-30T12:40:34Z
2021-01-30T10:42:35Z,42.805,6.029,13.3000,4.60033,2470.24,2021-1-30T12:43:38Z
2021-01-30T10:45:38Z,42.805,6.029,13.2989,4.60029,2470.25,2021-1-30T12:46:41Z
2021-01-30T10:48:41Z,42.805,6.029,13.2998,4.60023,2470.217,2021-1-30T12:49:44Z
2021-01-30T10:51:44Z,42.805,6.029,13.2990,4.60020,2470.273,2021-1-30T12:52:47Z
2021-01-30T10:54:47Z,42.805,6.029,13.2996,4.60028,2470.217,2021-1-30T12:55:50Z
2021-01-30T10:57:51Z,42.805,6.029,13.2991,4.60021,2470.213,2021-1-30T12:58:53Z
2021-01-30T11:00:54Z,42.805,6.029,13.2996,4.60021,2470.24,2021-1-30T13:01:56Z
2021-01-30T11:03:57Z,42.805,6.029,13.2993,4.60017,2470.217,2021-1-30T13:04:59Z
2021-01-30T11:07:00Z,42.805,6.029,13.2992,4.60026,2470.227,2021-1-30T13:08:03Z
2021-01-30T11:10:03Z,42.805,6.029,13.2993,4.60029,2470.217,2021-1-30T13:11:06Z
2021-01-30T11:13:06Z,42.805,6.029,13.2989,4.60010,2470.217,2021-1-30T13:14:09Z
2021-01-30T11:16:09Z,42.805,6.029,13.2993,4.60027,2470.217,2021-1-30T13:17:12Z
2021-01-30T11:19:13Z,42.805,6.029,13.2994,4.60017,2470.203,2021-1-30T13:20:15Z
2021-01-30T11:22:16Z,42.805,6.029,13.2990,4.60021,2470.203,2021-1-30T13:23:18Z
2021-01-30T11:25:19Z,42.805,6.029,13.2992,4.60027,2470.217,2021-1-30T13:26:21Z
2021-01-30T11:28:22Z,42.805,6.029,13.2995,4.60017,2470.194,2021-1-30T13:29:25Z
2021-01-30T11:31:25Z,42.805,6.029,13.2997,4.60015,2470.18,2021-1-30T13:32:28Z
2021-01-30T11:34:28Z,42.805,6.029,13.2993,4.60014,2470.171,2021-1-30T13:35:31Z
2021-01-30T11:37:31Z,42.805,6.029,13.2998,4.60021,2470.24,2021-1-30T13:38:34Z
2021-01-30T11:40:34Z,42.805,6.029,13.2997,4.60026,2470.217,2021-1-30T13:41:37Z
2021-01-30T11:43:38Z,42.805,6.029,13.2996,4.60018,2470.227,2021-1-30T13:44:40Z
2021-01-30T11:46:41Z,42.805,6.029,13.2996,4.60025,2470.18,2021-1-30T13:47:43Z
2021-01-30T11:49:44Z,42.805,6.029,13.3000,4.60043,2470.171,2021-1-30T13:50:46Z
2021-01-30T11:52:47Z,42.805,6.029,13.2991,4.60016,2470.18,2021-1-30T13:53:50Z
2021-01-30T11:55:50Z,42.805,6.029,13.2991,4.60033,2470.18,2021-1-30T13:56:53Z
2021-01-30T11:58:53Z,42.805,6.029,13.2997,4.60029,2470.18,2021-1-30T13:59:56Z
2021-01-30T12:01:56Z,42.805,6.029,13.3000,4.60021,2470.18,2021-1-30T14:02:59Z
2021-01-30T12:04:59Z,42.805,6.029,13.3000,4.60029,2470.156,2021-1-30T14:06:02Z
2021-01-30T12:08:03Z,42.805,6.029,13.2990,4.60021,2470.171,2021-1-30T14:09:05Z
2021-01-30T12:11:06Z,42.805,6.029,13.2992,4.60031,2470.147,2021-1-30T14:12:08Z
2021-01-30T12:14:09Z,42.805,6.029,13.2994,4.60028,2470.18,2021-1-30T14:15:11Z
2021-01-30T12:17:12Z,42.805,6.029,13.2996,4.60024,2470.156,2021-1-30T14:18:15Z
2021-01-30T12:20:15Z,42.805,6.029,13.2998,4.60034,2470.194,2021-1-30T14:21:18Z
2021-01-30T12:23:18Z,42.805,6.029,13.2988,4.60023,2470.171,2021-1-30T14:24:21Z
2021-01-30T12:26:21Z,42.805,6.029,13.2993,4.60022,2470.147,2021-1-30T14:27:24Z
2021-01-30T12:29:24Z,42.805,6.029,13.2991,4.60009,2470.11,2021-1-30T14:30:27Z
2021-01-30T12:32:28Z,42.805,6.029,13.3001,4.60034,2470.11,2021-1-30T14:33:30Z
2021-01-30T12:35:31Z,42.805,6.029,13.2994,4.60031,2470.133,2021-1-30T14:36:33Z
2021-01-30T12:38:34Z,42.805,6.029,13.2991,4.60016,2470.11,2021-1-30T14:39:36Z
2021-01-30T12:41:37Z,42.805,6.029,13.2995,4.60014,2470.124,2021-1-30T14:42:40Z
2021-01-30T12:44:40Z,42.805,6.029,13.3000,4.60031,2470.133,2021-1-30T14:45:43Z
2021-01-30T12:47:43Z,42.805,6.029,13.2999,4.60039,2470.11,2021-1-30T14:48:46Z
2021-01-30T12:50:46Z,42.805,6.029,13.2991,4.60055,2470.133,2021-1-30T14:51:49Z
2021-01-30T12:53:50Z,42.805,6.029,13.2995,4.60032,2470.156,2021-1-30T14:54:52Z
2021-01-30T12:56:53Z,42.805,6.029,13.2994,4.60022,2470.147,2021-1-30T14:57:55Z
2021-01-30T12:59:56Z,42.805,6.029,13.2991,4.60014,2470.11,2021-1-30T15:00:58Z
2021-01-30T13:02:59Z,42.805,6.029,13.2998,4.60031,2470.087,2021-1-30T15:04:02Z
2021-01-30T13:06:02Z,42.805,6.029,13.3001,4.60027,2470.087,2021-1-30T15:07:05Z
2021-01-30T13:09:05Z,42.805,6.029,13.2994,4.60029,2470.147,2021-1-30T15:10:08Z
2021-01-30T13:12:08Z,42.805,6.029,13.2998,4.60033,2470.087,2021-1-30T15:13:11Z
2021-01-30T13:15:11Z,42.805,6.029,13.2988,4.60039,2470.124,2021-1-30T15:16:14Z
2021-01-30T13:18:15Z,42.805,6.029,13.2990,4.60029,2470.147,2021-1-30T15:19:17Z
2021-01-30T13:21:18Z,42.805,6.029,13.2991,4.60027,2470.087,2021-1-30T15:22:20Z
2021-01-30T13:24:21Z,42.805,6.029,13.2987,4.60025,2470.124,2021-1-30T15:25:23Z
2021-01-30T13:27:24Z,42.805,6.029,13.2991,4.60041,2470.1,2021-1-30T15:28:27Z
2021-01-30T13:30:27Z,42.805,6.029,13.2996,4.60035,2470.11,2021-1-30T15:31:30Z
2021-01-30T13:33:30Z,42.805,6.029,13.2989,4.60029,2470.11,2021-1-30T15:34:33Z
2021-01-30T13:36:33Z,42.805,6.029,13.2993,4.60025,2470.124,2021-1-30T15:37:36Z
2021-01-30T13:39:36Z,42.805,6.029,13.2985,4.60005,2470.087,2021-1-30T15:40:39Z
2021-01-30T13:42:40Z,42.805,6.029,13.2987,4.60011,2470.063,2021-1-30T15:43:42Z
2021-01-30T13:45:43Z,42.805,6.029,13.2993,4.60019,2470.073,2021-1-30T15:46:45Z
2021-01-30T13:48:46Z,42.805,6.029,13.2990,4.60009,2470.124,2021-1-30T15:49:48Z
2021-01-30T13:51:49Z,42.805,6.029,13.2987,4.60009,2470.1,2021-1-30T15:52:52Z
2021-01-30T13:54:52Z,42.805,6.029,13.2991,4.60018,2470.11,2021-1-30T15:55:55Z
2021-01-30T13:57:55Z,42.805,6.029,13.2988,4.60020,2470.1,2021-1-30T15:58:58Z
2021-01-30T14:00:58Z,42.805,6.029,13.2990,4.60011,2470.087,2021-1-30T16:02:01Z
2021-01-30T14:04:01Z,42.805,6.029,13.2986,4.60000,2470.1,2021-1-30T16:05:04Z
2021-01-30T14:07:05Z,42.805,6.029,13.2996,4.60011,2470.087,2021-1-30T16:08:07Z
2021-01-30T14:10:08Z,42.805,6.029,13.2990,4.60019,2470.063,2021-1-30T16:11:10Z
2021-01-30T14:13:11Z,42.805,6.029,13.2986,4.60030,2470.087,2021-1-30T16:14:13Z
2021-01-30T14:16:14Z,42.805,6.029,13.2991,4.60034,2470.063,2021-1-30T16:17:17Z
2021-01-30T14:19:17Z,42.805,6.029,13.2991,4.60021,2470.063,2021-1-30T16:20:20Z
2021-01-30T14:22:20Z,42.805,6.029,13.2990,4.60021,2470.067,2021-1-30T16:23:23Z
2021-01-30T14:25:23Z,42.805,6.029,13.2995,4.60023,2470.087,2021-1-30T16:26:26Z
2021-01-30T14:28:26Z,42.805,6.029,13.2990,4.60026,2470.077,2021-1-30T16:29:29Z
2021-01-30T14:31:30Z,42.805,6.029,13.3004,4.60038,2470.063,2021-1-30T16:32:32Z
2021-01-30T14:34:33Z,42.805,6.029,13.2993,4.60023,2470.087,2021-1-30T16:35:35Z
2021-01-30T14:37:36Z,42.805,6.029,13.3000,4.60020,2470.063,2021-1-30T16:38:39Z
2021-01-30T14:40:39Z,42.805,6.029,13.2988,4.60009,2470.077,2021-1-30T16:41:42Z
2021-01-30T14:43:42Z,42.805,6.029,13.2989,4.60009,2470.063,2021-1-30T16:44:45Z
2021-01-30T14:46:45Z,42.805,6.029,13.2991,4.60025,2470.063,2021-1-30T16:47:48Z
2021-01-30T14:49:48Z,42.805,6.029,13.3000,4.60044,2470.063,2021-1-30T16:50:51Z
2021-01-30T14:52:52Z,42.805,6.029,13.3001,4.60044,2470.053,2021-1-30T16:53:54Z
2021-01-30T14:55:55Z,42.805,6.029,13.2991,4.60026,2470.124,2021-1-30T16:56:57Z
2021-01-30T14:58:58Z,42.805,6.029,13.2999,4.60052,2470.053,2021-1-30T17:00:00Z
2021-01-30T15:02:01Z,42.805,6.029,13.3000,4.60021,2470.077,2021-1-30T17:03:04Z
2021-01-30T15:05:04Z,42.805,6.029,13.2990,4.60020,2470.077,2021-1-30T17:06:07Z
2021-01-30T15:08:07Z,42.805,6.029,13.2998,4.60044,2470.087,2021-1-30T17:09:10Z
2021-01-30T15:11:10Z,42.805,6.029,13.2996,4.60014,2470.04,2021-1-30T17:12:13Z
2021-01-30T15:14:13Z,42.805,6.029,13.2995,4.60012,2470.04,2021-1-30T17:15:16Z